Flag for Czech Republic Weather past 2 weeks in Tábor, Czech Republic

Now
34 °F

Passing clouds.


Feels Like: 26 °F
Forecast: 33 / 42 °F
Wind: 9 mph from West

Location: Kocelovice

Current Time: Mar 3, 2015 at 10:21:02 AM

Latest Report: Mar 3, 2015 at 9:00 AM


Visibility: 25 mi

Pressure: 30.19 "Hg

Humidity: 73%

Dew point: 26 °F

Location of TáborLocation

Historic Weather in Tábor — Graph

°F

Tábor temperature yesterday

Maximum temperature yesterday: 42 °F (at 7:00 AM)
Minimum temperature yesterday: 32 °F (at 8:00 PM)
Average temperature yesterday: 38 °F

Past Weeks' High & Low Weather Summary

 TemperatureHumidityPressure
High51 °F (Feb 20, 4:00 PM)100% (Feb 23, 6:00 AM)30.79 "Hg (Feb 23, 6:00 AM)
Low24 °F (Feb 27, 7:00 AM)39% (Feb 20, 4:00 PM)29.50 "Hg (Feb 23, 2:00 PM)
Average34 °F82%30.06 "Hg
* Reported Feb 16 9:00 AM — Mar 3 9:00 AM, Tábor, Weather by CustomWeather, © 2015

Note: Actual official high and low records may vary slightly from our data, if they occured in-between our weather recording intervals... More about our weather records

Advertising

Tábor weather history for previous 24 hours

 ConditionsComfort  
Time TempWeatherWind HumidityBarometerVisibility
9:00 AM
Tue, Mar 3
34 °FPassing clouds.9 mph73%30.19 "Hg25 mi
8:00 AM33 °FPassing clouds.9 mph74%30.18 "Hg25 mi
7:00 AM32 °FPartly sunny.8 mph75%30.16 "Hg25 mi
6:00 AM33 °FSnow flurries. Overcast.7 mph77%30.14 "Hg12 mi
5:00 AM33 °FSnow flurries. Overcast.10 mph75%30.12 "Hg12 mi
4:00 AM33 °FChilly.9 mph72%30.09 "Hg12 mi
3:00 AM33 °FChilly.9 mph72%30.07 "Hg12 mi
2:00 AM33 °FSnow flurries. Overcast.10 mph70%30.06 "Hg12 mi
1:00 AM34 °FChilly.12 mph72%30.01 "Hg12 mi
12:00 AM35 °FChilly.15 mph69%29.95 "Hg12 mi
11:00 PM
Mon, Mar 2
35 °FRain showers. Overcast.10 mph82%29.90 "Hg12 mi
9:00 PM34 °FOvercast.2 mph87%29.86 "Hg16 mi
8:00 PM32 °FOvercast.N/A96%29.87 "Hg19 mi
7:00 PM35 °FPassing clouds.5 mph86%29.86 "Hg28 mi
6:00 PM36 °FPassing clouds.6 mph85%29.83 "Hg28 mi
5:00 PM37 °FScattered clouds.7 mph81%29.80 "Hg25 mi
4:00 PM37 °FScattered clouds.7 mph87%29.78 "Hg16 mi
3:00 PM37 °FPartly sunny.8 mph88%29.75 "Hg15 mi
2:00 PM34 °FRain showers. Low clouds.8 mph91%29.74 "Hg2 mi
1:00 PM37 °FLight mixture of precip. Low clouds.7 mph90%29.72 "Hg4 mi
12:00 PM37 °FLight rain. Overcast.9 mph85%29.72 "Hg11 mi
11:00 AM38 °FLight rain. Overcast.7 mph80%29.69 "Hg12 mi
10:00 AM39 °FLight rain. Overcast.7 mph79%29.64 "Hg10 mi
Weather by CustomWeather, © 2015

See weather overviewHow to use our weather pages